Regional Weather Roundup
Issued by NWS Charleston, SC

Current Version | Previous Version | Graphics & Text | Print | Product List | Glossary On
Versions: 1 2 3 4 5 6 7 8 9 10 11 12 13 14 15 16 17 18 19 20 21 22 23 24 25 26 27 28 29 30 31 32 33 34 35 36 37 38 39 40 41 42 43 44 45 46 47 48 49 50
667
ASUS42 KCHS 200413
RWRCHS

Regional Weather Roundup
National Weather Service Charleston SC
1200 AM EDT FRI APR 20 2018

NOTE: "fair" indicates few or no clouds below 12,000 feet with no
significant weather and/or obstructions to visibility.

Not all stations are quality controlled. Use data with caution,
especially dewpoint observations.

SCZ027-030-031-034>040-042>050-200500-
...Southeast South Carolina...

CITY           SKY/WX    TMP DP  RH WIND       PRES   REMARKS
N Charleston   FAIR      62  37  39 N17G25    30.11R
Waterfront Prk   N/A     66  46  48 N14G22    29.92R
Mount Pleasant FAIR      63  37  39 N9        30.11R
Johns Island   FAIR      64  41  42 N13G21    30.09R
Pinopolis        N/A     61  43  51 N20       30.02R
Moncks Corner  FAIR      59  32  36 N13G24    30.13R
Summerville    FAIR      59  34  38 N14G20    30.13R
Beaufort MCAS  FAIR      65  43  44 N13       30.09R
Beaufort Arpt  FAIR      64  41  42 N12       30.08R
Hilton Head Is FAIR      68  46  45 N13G18    30.08R
Walterboro     FAIR      61  36  39 N12G20    30.12R
Allendale      FAIR      61  36  39 N8        30.11R

...Southern Midlands and Pee Dee...

CITY           SKY/WX    TMP DP  RH WIND       PRES   REMARKS
Georgetown     FAIR      57  32  38 N15G22    30.13R
Kingstree      FAIR      55  30  38 N3        30.16R
Orangeburg     FAIR      57  32  38 NE13      30.15R
Barnwell       FAIR      59  34  38 N10       30.14R
Aiken          NOT AVBL
Manning        FAIR      52  28  40 N7        30.15R
Columbia       FAIR      58  32  37 NE9       30.17R
Sumter         FAIR      54  29  39 NE13      30.15R
Florence       FAIR      54  32  43 N10       30.18R
Myrtle Beach   FAIR      57  30  35 N23G30    30.14R
N Myrtle Beach FAIR      56  32  40 N9G20     30.13R

$$

GAZ063-065-086>088-099>101-113>116-118-119-134>141-150-200500-
...Southeast Georgia...

CITY           SKY/WX    TMP DP  RH WIND       PRES   REMARKS
Savannah Arpt  FAIR      65  42  43 N9        30.09R
Hunter AAF     FAIR      68  41  37 N12       30.06R
Fort Stewart   FAIR      66  41  40 N10G18    30.07R
Statesboro     FAIR      60  39  44 N6        30.10R
Sylvania       FAIR      63  45  51 N8        30.11R
Claxton        FAIR      65  43  43 NW7       30.10S

...CSRA, Central and far Southeast Georgia...

CITY           SKY/WX    TMP DP  RH WIND       PRES   REMARKS
Thomson        FAIR      54  39  55 E7        30.21R
Augusta-Bush   FAIR      58  35  42 NE12      30.14R
Augusta-Daniel FAIR      59  34  39 NE9       30.15R
Swainsboro     FAIR      59  41  51 N7        30.14R
Vidalia        FAIR      61  43  51 N7        30.12R
Eastman        FAIR      60  27  28 N6        30.16R
Hazlehurst     FAIR      64  40  41 N10       30.11R
Alma           FAIR      66  43  43 N9G17     30.08R
Waycross       MOCLDY    68  40  36 N12       30.08R
Jesup          FAIR      70  43  37 N9        30.09R
Baxley         FAIR      63  41  45 N6        30.09S
Brunswick      FAIR      70  50  49 N6        30.07R
Saint Simons   MOCLDY    71  57  61 N9        30.05R

$$

SCZ027-028-034-036>038-045-046-048>050-GAZ119-141-200500-
...Lake and Supplemental Coastal Observations...

STATION/POSITION TIME  TEMP    WIND        PRES    WAVE   SWELL
                       AIR SEA DIR/SP/G            HT/PER HT/PER/DIR
                 (UTC) (F)     (DEG/KT/KT) (MB)    (FT/S) (FT/S/D)
Winyah Bay       0245   65     360/ 10     1018.0
Lake Murray      0320   56      20/  1/  4 1020.7
ACE Basin NERRS  0245   69     350/  2       N/A
Fort Pulaski     0348   67 66  340/  9/ 11 1018.6R
Sapelo Island    0300   71     330/  7     1017.0

$$

ANZ835-935-AMZ111-154-330-350-352-354-370-450-454-472-200500-
...C-MAN and Buoy Observations...

STATION/POSITION TIME  TEMP    WIND        PRES    WAVE   SWELL
                       AIR SEA DIR/SP/G            HT/PER HT/PER/DIR
                 (UTC) (F)     (DEG/KT/KT) (MB)    (FT/S) (FT/S/D)
Buoy 41004       0350   67 68   20/ 25/ 33 1017.6R   4/ 6   2/160/ 7
Buoy 41008       0350   70 66   10/ 14/ 16 1016.9R   2/ 5   2/130/ 9
Folly Beach CMAN 0400   65     360/ 15/ 19 1019.5R
Capers Nearshore 0308   67 63   20/ 17/ 25 1017.9R
Fripp Nearshore  0308   68 64  350/ 10/ 16 1017.0R


STATION/POSITION TIME  TEMP    WIND        PRES    WAVE   SWELL
                       AIR SEA DIR/SP/G            HT/PER HT/PER/DIR
                 (UTC) (F)     (DEG/KT/KT) (MB)    (FT/S) (FT/S/D)
5E St. Marys GA  0400      67                N/A     2/ 8
Frying Pan Buoy  0350   62 66   10/ 27/ 35 1018.6R   5/ 7   2/190/ 8
Buoy 41025       0400   57 67   10/ 27/ 33 1019.2
Cape Lookout NC  0300          350/ 19/ 21 1019.0R
Buoy 41002       0350   72 71  240/ 16/ 21 1016.0F   7/ 7   3/270/ 8
Buoy 41010       0350   74 73  180/ 12/ 16 1018.4F   2/ 5   2/100/ 8
St Augustine FL  0400   69 68  260/  7/  9 1018.5R


$$




USA.gov is the U.S. government's official web portal to all federal, state and local government web resources and services.